Find OneWeb SL0243

NORAD ID: 48774 Int'l Des: 2021-045 Owner: ONEWEBN Country: UK Constellation: oneweb operational
LEOCIRCULARPOLARONEWEB_TYPE

实时位置

正在加载3D地球...

关于 OneWeb SL0243

正在加载描述...

即将过境

Passes for default location (London). Set your location on the main map for personalized predictions.

高度历史

Loading altitude history...

两行轨道根数

1 48774U 21045H 26110.41347536 -.00000024 00000-0 -96928-4 0 9991
2 48774 87.8936 270.7441 0002393 94.5307 265.6097 13.15548037236769
Epoch: Apr 20, 2026 • Age: 9 hours

当前状态

高度 1209.2 km
速度 7.26 km/s
星下点 53.53°N, 134.8°E
发射日期 May 28, 2021
运行时间 4.8 years
类型 internet

技术详情

分类 Payload
质量 148.00 kg
干质量 140.00 kg
总质量 148.00 kg
长度 1.30 m
直径 1.00 m
跨度 5.00 m
形状 Trapezoid+2 pan
制造商 ONEWUS
平台类型 ARROW
阶段状态 In Orbit
所有者/国家 ONEWEBN/UK

Most Searched